Retour au catalogue

ONEWEB-0201

ActifCommunicationsPO
NORAD 48241·PAYLOAD·🇬🇧 United Kingdom

Lancé Apr 25, 2021 depuis Vostochny Cosmodrome

Loading…

Prochains Passages (prochaines 24 heures)

TLE

FraisSource: CelesTrak SupGP

Époque: Sep 14, 2026, 23:02 UTC

1 48241C 21031AH  26257.96025877  .00002644  00000+0  71413-2 0  2572
2 48241  87.8905 271.8108 0001825 102.5537 347.8086 13.14503880    14

Suivez ONEWEB-0201 en temps réel avec AllMySat

Download on the App Store